Cadillac, MI

10:08 AM EDT on July 24, 2017 (GMT -0400)
Wexford County

Weather History for KCAD - May, 2013

Change the Weather History Date:

Monday, May 6, 2013

  Actual Average Record
Temperature  
Mean Temperature 58 °F -  
Max Temperature 79 °F 62 °F 84 °F (2000)
Min Temperature 36 °F 36 °F 22 °F (1955)
Degree Days  
Heating Degree Days 8    
Growing Degree Days 8 (Base 50)    
Moisture  
Dew Point 31 °F    
Average Humidity 42    
Maximum Humidity 88    
Minimum Humidity 10    
Precipitation  
Precipitation 0.00 in - - ()
Sea Level Pressure  
Sea Level Pressure 30.04 in    
Wind  
Wind Speed 3 mph (East)    
Max Wind Speed 12 mph    
Max Gust Speed 20 mph    
Visibility 10 miles    
Events      
Averages and records for this station are not official NWS values.
T = Trace of Precipitation, MM = Missing Value Source: NWS Daily Summary

Daily Weather History Graph

Daily Weather History Graph

Search for Another Location

Airport or City:

Trip Planner

Search our weather history database for the weather conditions in past years. The results will help you decide how hot, cold, wet, or windy it might be!

Date:

Astronomy

May. 06, 2013 Rise Set
Actual Time 6:25 AM EDT 8:51 PM EDT
Civil Twilight 5:52 AM EDT 9:24 PM EDT
Nautical Twilight 5:12 AM EDT 10:05 PM EDT
Astronomical Twilight 4:26 AM EDT 10:51 PM EDT
Moon 4:34 AM EDT (5/6) 5:45 PM EDT (5/6)
Length of Visible Light 15h 31m
Length of Day
14h 26m
Waning Crescent, 11% of the Moon is Illuminated
May 6
Waning Crescent
May 9
New
May 18
First Quarter
May 25
Full
May 31
Last Quarter

Hourly Weather History & Observations

Time (EDT) Temp. Dew Point Humidity Pressure Visibility Wind Dir Wind Speed Gust Speed Precip Events Conditions
12:15 AM 46.2 °F 33.8 °F 62% 30.07 in 10.0 mi Calm Calm - N/A   Clear
12:35 AM 51.4 °F 33.4 °F 50% 30.07 in 10.0 mi Calm Calm - N/A   Clear
12:55 AM 52.7 °F 32.7 °F 47% 30.07 in 10.0 mi East 3.5 mph - N/A   Clear
1:15 AM 56.5 °F 35.4 °F 45% 30.07 in 10.0 mi ESE 4.6 mph - N/A   Clear
1:35 AM 54.0 °F 35.6 °F 50% 30.07 in 10.0 mi East 3.5 mph - N/A   Clear
1:55 AM 54.9 °F 36.7 °F 50% 30.07 in 10.0 mi Calm Calm - N/A   Clear
2:35 AM 54.0 °F 36.3 °F 51% 30.06 in 10.0 mi Calm Calm - N/A   Clear
2:55 AM 43.9 °F 35.2 °F 72% 30.06 in 10.0 mi Calm Calm - N/A   Clear
3:15 AM 41.5 °F 34.5 °F 76% 30.06 in 10.0 mi Calm Calm - N/A   Clear
3:35 AM 41.2 °F 35.1 °F 79% 30.06 in 10.0 mi Calm Calm - N/A   Clear
3:54 AM 41.5 °F 35.4 °F 79% 30.05 in 10.0 mi Calm Calm - N/A   Clear
4:15 AM 41.2 °F 35.6 °F 81% 30.05 in 10.0 mi Calm Calm - N/A   Clear
4:35 AM 41.2 °F 36.0 °F 82% 30.05 in 10.0 mi Calm Calm - N/A   Clear
4:55 AM 41.2 °F 36.7 °F 84% 30.05 in 10.0 mi Calm Calm - N/A   Clear
5:15 AM 38.7 °F 34.7 °F 86% 30.05 in 10.0 mi Calm Calm - N/A   Clear
5:35 AM 38.7 °F 34.9 °F 86% 30.06 in 10.0 mi Calm Calm - N/A   Clear
5:54 AM 38.7 °F 35.1 °F 87% 30.06 in 10.0 mi Calm Calm - N/A   Clear
6:15 AM 38.7 °F 35.2 °F 87% 30.06 in 10.0 mi Calm Calm - N/A   Clear
6:35 AM 36.1 °F 32.7 °F 87% 30.07 in 10.0 mi Calm Calm - N/A   Clear
6:54 AM 36.1 °F 32.9 °F 88% 30.07 in 10.0 mi Calm Calm - N/A   Clear
7:15 AM 38.7 °F 35.1 °F 87% 30.08 in 10.0 mi Calm Calm - N/A   Clear
7:35 AM 41.4 °F 37.0 °F 85% 30.08 in 10.0 mi Calm Calm - N/A   Clear
7:54 AM 45.0 °F 38.8 °F 79% 30.08 in 10.0 mi Calm Calm - N/A   Clear
8:15 AM 51.4 °F 42.6 °F 72% 30.08 in 10.0 mi Calm Calm - N/A   Clear
8:34 AM 56.3 °F 41.0 °F 57% 30.08 in 10.0 mi ENE 4.6 mph - N/A   Clear
8:55 AM 59.0 °F 39.4 °F 48% 30.08 in 10.0 mi ENE 4.6 mph - N/A   Clear
9:15 AM 61.7 °F 41.2 °F 47% 30.08 in 10.0 mi East 5.8 mph - N/A   Clear
9:34 AM 63.3 °F 40.8 °F 44% 30.08 in 10.0 mi East 4.6 mph - N/A   Clear
9:55 AM 64.9 °F 40.3 °F 40% 30.08 in 10.0 mi East 5.8 mph - N/A   Clear
10:15 AM 69.1 °F 38.8 °F 33% 30.08 in 10.0 mi East 6.9 mph - N/A   Clear
10:34 AM 71.6 °F 37.8 °F 29% 30.08 in 10.0 mi East 6.9 mph - N/A   Clear
10:55 AM 71.6 °F 33.6 °F 25% 30.07 in 7.0 mi East 4.6 mph - N/A   Clear
11:15 AM 71.6 °F 31.6 °F 23% 30.07 in 10.0 mi East 4.6 mph - N/A   Clear
11:34 AM 71.6 °F 26.4 °F 19% 30.07 in 10.0 mi ENE 6.9 mph - N/A   Clear
11:55 AM 71.8 °F 21.4 °F 15% 30.06 in 10.0 mi Calm Calm - N/A   Clear
12:15 PM 74.3 °F 23.9 °F 15% 30.06 in 10.0 mi Calm Calm - N/A   Clear
12:34 PM 75.0 °F 27.0 °F 17% 30.06 in 10.0 mi SE 8.1 mph - N/A   Clear
12:55 PM 76.6 °F 27.0 °F 16% 30.05 in 10.0 mi ESE 10.4 mph 16.1 mph N/A   Clear
1:15 PM 76.6 °F 29.8 °F 18% 30.05 in 10.0 mi ESE 8.1 mph 19.6 mph N/A   Clear
1:35 PM 76.6 °F 31.6 °F 19% 30.04 in 10.0 mi SE 3.5 mph 18.4 mph N/A   Clear
1:55 PM 76.6 °F 29.3 °F 18% 30.04 in 10.0 mi SSE 4.6 mph 18.4 mph N/A   Clear
2:15 PM 76.6 °F 29.3 °F 18% 30.03 in 10.0 mi ENE 6.9 mph - N/A   Clear
2:35 PM 76.6 °F 24.8 °F 15% 30.03 in 10.0 mi ESE 8.1 mph - N/A   Clear
2:55 PM 76.8 °F 21.2 °F 13% 30.02 in 10.0 mi ESE 8.1 mph - N/A   Clear
3:15 PM 78.8 °F 19.2 °F 11% 30.02 in 10.0 mi East 11.5 mph - N/A   Clear
3:35 PM 76.6 °F 15.3 °F 10% 30.01 in 10.0 mi South 3.5 mph - N/A   Clear
3:55 PM 79.2 °F 18.1 °F 10% 30.00 in 10.0 mi East 8.1 mph 16.1 mph N/A   Clear
4:15 PM 76.6 °F 14.9 °F 10% 29.99 in 10.0 mi SE 6.9 mph - N/A   Clear
4:35 PM 77.2 °F 17.4 °F 11% 29.98 in 10.0 mi SE 6.9 mph - N/A   Clear
4:55 PM 78.1 °F 20.8 °F 12% 29.98 in 10.0 mi East 8.1 mph - N/A   Clear
5:15 PM 76.6 °F 21.2 °F 13% 29.98 in 10.0 mi ESE 8.1 mph - N/A   Clear
5:35 PM 76.6 °F 23.4 °F 14% 29.97 in 10.0 mi East 9.2 mph - N/A   Clear
5:55 PM 76.6 °F 23.7 °F 14% 29.97 in 10.0 mi ESE 9.2 mph - N/A   Clear
6:14 PM 76.6 °F 22.3 °F 13% 29.97 in 10.0 mi ESE 4.6 mph - N/A   Clear
6:55 PM 76.6 °F 24.1 °F 14% 29.97 in 10.0 mi East 4.6 mph - N/A   Clear
7:15 PM 74.3 °F 30.6 °F 20% 29.98 in 10.0 mi NE 8.1 mph - N/A   Clear
7:35 PM 71.6 °F 30.6 °F 22% 29.98 in 10.0 mi North 4.6 mph - N/A   Clear
7:55 PM 71.6 °F 31.3 °F 23% 29.99 in 10.0 mi North 6.9 mph - N/A   Clear
8:15 PM 69.1 °F 31.3 °F 25% 30.00 in 10.0 mi NNW 4.6 mph - N/A   Clear
8:35 PM 66.6 °F 30.6 °F 26% 30.00 in 10.0 mi North 4.6 mph - N/A   Clear
8:55 PM 64.0 °F 30.7 °F 29% 30.01 in 10.0 mi North 4.6 mph - N/A   Clear
9:15 PM 62.6 °F 30.9 °F 30% 30.01 in 10.0 mi North 3.5 mph - N/A   Clear
9:35 PM 62.4 °F 30.4 °F 30% 30.02 in 10.0 mi Calm Calm - N/A   Clear
9:55 PM 61.0 °F 32.0 °F 34% 30.03 in 10.0 mi Calm Calm - N/A   Clear
10:15 PM 60.4 °F 32.4 °F 35% 30.03 in 10.0 mi NNE 3.5 mph - N/A   Clear
10:35 PM 54.0 °F 35.1 °F 49% 30.04 in 10.0 mi Calm Calm - N/A   Clear
10:55 PM 52.7 °F 35.1 °F 51% 30.04 in 10.0 mi Calm Calm - N/A   Clear
11:15 PM 51.6 °F 34.7 °F 52% 30.04 in 10.0 mi Calm Calm - N/A   Clear
11:35 PM 51.4 °F 36.1 °F 56% 30.03 in 10.0 mi Calm Calm - N/A   Clear
11:55 PM 50.0 °F 36.5 °F 60% 30.03 in 10.0 mi Calm Calm - N/A   Clear